Home > Time Zones > World Clock > Weather > Nigeria > Uyo > Past weeks

Flag for Nigeria Weather past 2 weeks in Uyo, Nigeria

Now
77 °F

Passing clouds.


Feels Like: 78 °F
Forecast: 73 / 96 °F
Wind: 5 mph from Southwest

Location: Malabo/Fernando Poo

Current Time: Dec 23, 2014 at 2:51:12 AM

Latest Report: Dec 23, 2014 at 1:00 AM


Visibility: 5 mi

Pressure: 29.92 "Hg

Humidity: 94%

Dew point: 75 °F

Location of UyoLocation

Historic Weather in Uyo — Graph

°F

Uyo temperature yesterday

Maximum temperature yesterday: 88 °F (at 1:00 PM)
Minimum temperature yesterday: 75 °F (at 3:00 AM)
Average temperature yesterday: 81 °F

Past Weeks' High & Low Weather Summary

 TemperatureHumidityPressure
High88 °F (Dec 21, 11:00 AM)100% (Dec 13, 1:00 AM)32.84 "Hg (Dec 13, 1:00 AM)
Low73 °F (Dec 10, 3:00 AM)55% (Dec 15, 12:00 PM)29.77 "Hg (Dec 10, 3:00 AM)
Average81 °F81%29.88 "Hg
* Reported Dec 8 2:00 AM — Dec 23 1:00 AM, Uyo, Weather by CustomWeather, © 2014

Note: Actual official high and low records may vary slightly from our data, if they occured in-between our weather recording intervals... More about our weather records

Advertising

Uyo weather history for previous 24 hours

 ConditionsComfort  
Time TempWeatherWind HumidityBarometerVisibility
1:00 AM
Dec 23
77 °FPassing clouds.5 mph94%29.92 "Hg5 mi
12:00 AM77 °FPassing clouds.5 mph100%29.92 "Hg5 mi
10:00 PM
Dec 22
79 °FPassing clouds.7 mph89%29.89 "Hg5 mi
9:00 PM81 °FPassing clouds.5 mph84%29.86 "Hg6 mi
8:00 PM81 °FPassing clouds.3 mph84%29.86 "Hg6 mi
7:00 PM84 °FPassing clouds.6 mph66%29.83 "HgN/A
6:00 PM84 °FPassing clouds.3 mph66%29.83 "HgN/A
5:00 PM86 °FPassing clouds.8 mph62%29.83 "HgN/A
4:00 PM86 °FPassing clouds.8 mph62%29.83 "HgN/A
3:00 PM86 °FPassing clouds.9 mph66%29.83 "HgN/A
2:00 PM88 °FPassing clouds.7 mph66%29.86 "HgN/A
1:00 PM88 °FPassing clouds.7 mph62%29.89 "HgN/A
10:00 AM82 °FPassing clouds.No wind84%29.95 "HgN/A
9:00 AM79 °FPassing clouds.No wind79%29.95 "Hg5 mi
8:00 AM77 °FThunderstorms. Passing clouds.5 mph89%29.89 "Hg5 mi
7:00 AM75 °FThunderstorms. Passing clouds.No wind94%29.86 "Hg5 mi
6:00 AM75 °FThunderstorms. Passing clouds.No wind94%29.89 "Hg5 mi
4:00 AM75 °FThunderstorms. Passing clouds.5 mph94%29.89 "HgN/A
3:00 AM75 °FPassing clouds.5 mph94%29.89 "HgN/A
2:00 AM77 °FPassing clouds.5 mph94%29.92 "HgN/A
Weather by CustomWeather, © 2014

See weather overviewHow to use our weather pages